Location: Alderney
(49.7170°N, 2.2000°W)
Time: 00:53:06
(UTC+00:00)

Tiangong 2 - Visible Passes

Search period start: 20 January 2018 00:00
Search period end: 30 January 2018 00:00
Orbit: 384 x 390 km, 42.8° (Epoch: 18 January)

Date Brightness Start Highest point End Pass type
(mag) Time Alt. Az. Time Alt. Az. Time Alt. Az.
20 Jan 3.4 06:49:25 10° SW 06:51:53 21° S 06:54:23 10° ESE visible
21 Jan 3.4 05:52:19 15° S 05:53:23 17° SSE 05:55:36 10° ESE visible
22 Jan 4.4 04:56:28 10° SE 04:56:28 10° SE 04:56:34 10° SE visible
22 Jan 3.1 06:28:44 12° SW 06:31:04 23° S 06:33:40 10° ESE visible
23 Jan 3.2 05:32:48 21° SSE 05:32:48 21° SSE 05:35:00 10° ESE visible
23 Jan 3.1 07:06:14 10° WSW 07:08:45 22° S 07:11:18 10° SE visible
24 Jan 2.9 06:09:05 19° SSW 06:10:12 23° S 06:12:49 10° SE visible
25 Jan 3.7 05:13:04 17° SE 05:13:04 17° SE 05:14:14 10° ESE visible
25 Jan 3.3 06:45:34 10° WSW 06:47:52 18° SSW 06:50:09 10° SSE visible
26 Jan 2.9 05:49:18 21° S 05:49:18 21° S 05:51:49 10° SE visible
27 Jan 4.4 04:53:16 10° SE 04:53:16 10° SE 04:53:20 10° SE visible
27 Jan 3.4 06:25:32 12° SW 06:26:53 14° SSW 06:28:41 10° SSE visible
28 Jan 3.6 05:29:31 15° SSE 05:29:31 15° SSE 05:30:37 10° SSE visible
